Location: Il Ritiro
(43.4167°N, 13.1333°E)
Time: 01:39:34
(UTC+00:00)

SL-16 R/B - Pass Details

Date: 05 July 2020
Orbit: 839 x 850 km, 71.0° (Epoch: 11 August)

Event Time Altitude Azimuth Distance (km) Brightness Sun altitude
Exits shadow 21:18:51 17° 100° (E) 2,002 3.8 -19.0°
Maximum altitude 21:18:58 17° 99° (E) 2,002 3.8 -19.0°
Drops below altitude 10° 21:22:31 10° 59° (ENE) 2,473 4.7 -19.3°
Sets 21:25:47 0° 41° (NE) 3,416 5.7 -19.5°
